[ hide orbit diagram ]
For accurate long-term ephemerides, please instead use our Horizons system.This orbit viewer was implemented using two-body methods, and hence should not be used for determining accurate long-term trajectories (over several years or decades) or planetary encounter circumstances.
Orbital Elements at Epoch 2459000.5 (2020-May-31.0) TDB
Reference: JPL 20 (heliocentric ecliptic J2000)
Element | Value | Uncertainty (1-sigma) | Units |
e | .1250167122108287 | 3.9189e-08 | |
a | 3.023516914266512 | 1.7413e-08 | au |
q | 2.645526770331083 | 1.2286e-07 | au |
i | 4.815605281324109 | 4.2492e-06 | deg |
node | 227.8881396916366 | 5.0843e-05 | deg |
peri | 200.5778286361974 | 5.3752e-05 | deg |
M | 318.3028981205293 | 1.7415e-05 | deg |
tp | 2459222.918240391165 (2021-Jan-08.41824039) | 9.3213e-05 | TDB |
period | 1920.29092986536 5.26 | 1.6589e-05 4.542e-08 | d yr |
n | .1874715931847062 | 1.6196e-09 | deg/d |
Q | 3.401507058201942 | 1.959e-08 | au |
|
| | Orbit Determination Parameters
Additional Information
|
[ hide covariance matrix ]
Orbital Elements at Epoch 2457474.5 (2016-Mar-27.0) TDB
Reference: JPL 20 (heliocentric ecliptic J2000)
Element | Value | Uncertainty (1-sigma) | Units |
e | .1214716158098398 | 3.8519e-08 | |
q | 2.658429876126858 | 1.2005e-07 | au |
tp | 2457289.143673897225 (2015-Sep-23.64367390) | 9.6517e-05 | TDB |
node | 228.0026773642971 | 5.1022e-05 | deg |
peri | 198.701446173185 | 5.4178e-05 | deg |
i | 4.800758808974517 | 4.2462e-06 | deg |
|
| | Orbit Determination Parameters
Additional Information
|
Orbit Covariance (6×6)
|
|
e |
q |
tp |
node |
peri |
i |
e |
1.483677017371962E-15 |
-4.587722109250579E-15 |
-2.119202882891068E-13 |
-5.377120604245918E-16 |
-1.634763949540625E-15 |
-1.245849170874536E-16 |
q |
-4.587722109250579E-15 |
1.4411833515675E-14 |
6.611602539171522E-13 |
2.767418032460534E-15 |
7.914842086325859E-15 |
1.127936576048336E-15 |
tp |
-2.119202882891068E-13 |
6.611602539171522E-13 |
9.315588984273116E-9 |
1.025070726439796E-11 |
1.778292166290597E-9 |
2.854752482808948E-12 |
node |
-5.377120604245918E-16 |
2.767418032460534E-15 |
1.025070726439796E-11 |
2.603278753042761E-9 |
-2.592493083714318E-9 |
-2.35556708419265E-11 |
peri |
-1.634763949540625E-15 |
7.914842086325859E-15 |
1.778292166290597E-9 |
-2.592493083714318E-9 |
2.935286368536953E-9 |
2.403389916628001E-11 |
i |
-1.245849170874536E-16 |
1.127936576048336E-15 |
2.854752482808948E-12 |
-2.35556708419265E-11 |
2.403389916628001E-11 |
1.802992411785614E-11 |
|
Physical Parameter Table
Parameter |
Symbol |
Value |
Units |
Sigma |
Reference |
Notes |
absolute magnitude |
H |
14.7 |
|
n/a |
MPO449536 |
|
|
86300 (1999 VU33) Discovered 1999-Nov-03 by LINEAR at Socorro |
Reference: 20040830/Numbers.arc | Last Updated: 2004-09-06 |
|
[ hide close-approach data ]
Close-Approach Data ...sorted by Date/Time (TDB)
|
Date/Time (TDB) |
Time Uncertainty (days_HH:MM) |
Body |
Nominal Distance (au) |
Minimum Distance (au) |
Maximum Distance (au) |
V-relative (km/s) |
V-infinity (km/s) |
JD (TDB) |
Time Uncertainty (minutes) |
Semi-major axis (km) |
Semi-minor axis (km) |
range-LOV angle (deg) |
N-sigma |
BP |
Orbit Ref. |
Reference |
Modified |
1914-Jan-26 09:01 |
00:03 |
Jupiter |
1.95394942243031 |
1.95394878018113 |
1.95395006467982 |
2.91516062909581 |
2.76245839703806 |
2420158.876029426 |
2.75363073569539 |
87.3096466366 |
17.2803351778792 |
83.2137049650891 |
2778354.93891755 |
T |
20 |
CATAB v2.0f-lin.ifort 2020-Dec-17 22:15:07 |
2020-Dec-17 22:15 |
1961-Apr-20 04:46 |
00:02 |
Jupiter |
1.93000695429611 |
1.93000649933245 |
1.93000740925978 |
2.78541841460312 |
2.62313083307721 |
2437409.698902052 |
1.49654160812284 |
54.872925779194 |
14.9642171924327 |
-89.8122493837524 |
3011908.01598197 |
T |
20 |
CATAB v2.0f-lin.ifort 2020-Dec-17 22:15:07 |
2020-Dec-17 22:15 |
2008-Jul-12 22:30 |
< 00:01 |
Jupiter |
1.91481424881627 |
1.91481385547767 |
1.91481464215487 |
2.70317374343465 |
2.53425406325846 |
2454660.437756962 |
0.292347871466053 |
49.3018267401935 |
12.7236255265206 |
-85.8068594804965 |
3272680.35980968 |
T |
20 |
CATAB v2.0f-lin.ifort 2020-Dec-17 22:15:07 |
2020-Dec-17 22:15 |
2055-Oct-07 00:21 |
00:01 |
Jupiter |
1.90939260430637 |
1.90939221815875 |
1.90939299045387 |
2.66176529986846 |
2.4895336506766 |
2471912.514806191 |
1.06900016623177 |
50.1391284510364 |
12.4948266319351 |
-86.4210712770432 |
3231693.33652603 |
T |
20 |
CATAB v2.0f-lin.ifort 2020-Dec-17 22:15:07 |
2020-Dec-17 22:15 |
2103-Jan-01 10:26 |
00:02 |
Jupiter |
1.90365839090776 |
1.90365801829952 |
1.903658763516 |
2.63487685103625 |
2.46022088965066 |
2489164.934846888 |
2.31585277411563 |
57.3665430765741 |
12.4445141367144 |
-87.9596821879794 |
3266044.59545894 |
T |
20 |
CATAB v2.0f-lin.ifort 2020-Dec-17 22:15:07 |
2020-Dec-17 22:15 |
2150-Mar-28 06:11 |
00:04 |
Jupiter |
1.90148909859091 |
1.90148868728123 |
1.90148950990058 |
2.63010751394006 |
2.45490552172897 |
2506417.757604071 |
3.56637319622919 |
90.4611602253256 |
13.0658508156118 |
87.5289591330198 |
3029290.54439217 |
T |
20 |
CATAB v2.0f-lin.ifort 2020-Dec-17 22:15:07 |
2020-Dec-17 22:15 |
2197-Jun-21 23:56 |
00:05 |
Jupiter |
1.91272658242112 |
1.91272593092579 |
1.91272723391872 |
2.66396583294992 |
2.49219656297526 |
2523670.496979418 |
4.81297456866202 |
149.462138425456 |
13.7706174194474 |
83.8846589349457 |
2876336.41422692 |
T |
20 |
CATAB v2.0f-lin.ifort 2020-Dec-17 22:15:07 |
2020-Dec-17 22:15 |
|
|